This is the latest recevied weather packets stored in our database for station/object W8KVG. If no packets are shown the sender has not sent any weather packets the latest 10 day(s).
| Time | Temp. | Humidity | Pressure | Rain* | Wind** | Luminosity | Snow |
|---|---|---|---|---|---|---|---|
| 1777936339 | 19.44° C | 68% | 1005.9 hPa | 0.51 mm | - | 85 W/m² | - |
| 1777936035 | 19.44° C | 63% | 1006 hPa | 0.51 mm | - | 34 W/m² | - |
| 1777935734 | 20° C | 60% | 1006.2 hPa | 0 mm | - | 20 W/m² | - |
| 1777935433 | 20° C | 59% | 1006.2 hPa | 0 mm | - | 20 W/m² | - |
| 1777935128 | 20° C | 58% | 1006 hPa | 0 mm | - | 27 W/m² | - |
| 1777934825 | 20° C | 60% | 1006.2 hPa | 0 mm | - | 22 W/m² | - |
| 1777934523 | 20.56° C | 64% | 1006.2 hPa | 0 mm | - | 41 W/m² | - |
| 1777934219 | 21.11° C | 54% | 1006.1 hPa | 0 mm | - | 52 W/m² | - |
| 1777933915 | 21.11° C | 54% | 1006 hPa | 0 mm | - | 81 W/m² | - |
| 1777933612 | 21.11° C | 54% | 1006.1 hPa | 0 mm | - | 24 W/m² | - |
| 1777933309 | 21.11° C | 53% | 1006.2 hPa | 0 mm | - | 20 W/m² | - |
| 1777933006 | 21.11° C | 54% | 1006.3 hPa | 0 mm | - | 16 W/m² | - |
| 1777932725 | 21.11° C | 52% | 1005.8 hPa | 0 mm | - | 31 W/m² | - |
| 1777932399 | 21.67° C | 52% | 1006.1 hPa | 0 mm | - | 45 W/m² | - |
| 1777932097 | 21.67° C | 51% | 1005.9 hPa | 0 mm | - | 43 W/m² | - |
| 1777931793 | 22.22° C | 51% | 1006 hPa | 0 mm | - | 96 W/m² | - |
| 1777931491 | 22.22° C | 49% | 1006.2 hPa | 0 mm | - | 90 W/m² | - |
| 1777931186 | 22.78° C | 50% | 1006 hPa | 0 mm | - | 112 W/m² | - |
| 1777930883 | 23.33° C | 48% | 1006 hPa | 0 mm | - | 400 W/m² | - |
| 1777930580 | 23.89° C | 47% | 1006 hPa | 0 mm | - | 100 W/m² | - |
| 1777930276 | 25° C | 44% | 1005.9 hPa | 0 mm | - | 216 W/m² | - |
| 1777929973 | 24.44° C | 44% | 1005.9 hPa | 0 mm | - | 495 W/m² | - |
| 1777929670 | 23.89° C | 45% | 1005.9 hPa | 0 mm | - | 502 W/m² | - |
| 1777929367 | 23.33° C | 47% | 1006.1 hPa | 0 mm | - | 566 W/m² | - |
| 1777929063 | 22.22° C | 50% | 1006 hPa | 0 mm | - | 81 W/m² | - |
* Rain latest hour (hover to see other rain measurements)
** Current wind speed in m/s (hover to see current wind gust speed)